sat.trackr.live / text

‹ back to catalog

STARLINK-5163

NORAD 54054 · 2022-136D

PAYLOAD ACTIVE UNKNOWN

§ Identity

Operator
Country
US
Launch date
2022-10-20
Launch site
AFETR
Launch vehicle
Mass (kg)
RCS (m²)

Purposes: comms

External: N2YO · Heavens-Above · Gunter

§ Orbital elements

Epoch: 2026-09-20T03:56:01.055040Z

Period
94.01 min
Inclination
53.1602°
Eccentricity
0.0001029
Mean motion
15.31704241 rev/d
Perigee alt
470.0 km
Apogee alt
471.4 km
Semi-major
6,848.9 km
B*
-7.6473e-6
RAAN
177.8366°
Arg perigee
75.1572°
Mean anomaly
284.9543°
Rev number
21,638

§ Raw data

STARLINK-51631 54054U 22136D   26263.16390110 -.00000602  00000+0 -76473-5 0  99932 54054  53.1602 177.8366 0001029  75.1572 284.9543 15.31704241216387

JSON: /api/v1/satellites/54054 · /tle

For live sub-satellite position, see the globe view (requires WebGL).

§ Visibility from observer

Set your observer location to see the next 7 days of passes ≥ 10°. The values pass through the URL so the page stays shareable.

No JS? Fill the form by hand. The geolocation button needs JavaScript.